| time (UTC) | temp F | wind direction | speed MPH | gust MPH | rain 1hr in | rain 24hr in | rain mn in | humidity % | barometer mb |
| 20260508204541 | 70 | 157 | 2.0 | 8.0 | 0.00 | 0.00 | 0.00 | 36 | 1015.5 |
| 20260508203042 | 70 | 166 | 1.0 | 9.0 | 0.00 | 0.00 | 0.00 | 37 | 1015.8 |
| 20260508201546 | 70 | 177 | 0.0 | 3.0 | 0.00 | 0.00 | 0.00 | 37 | 1015.7 |
| 20260508200034 | 69 | 133 | 2.0 | 8.0 | 0.00 | 0.00 | 0.00 | 35 | 1015.9 |
| 20260508194530 | 69 | 283 | 0.0 | 8.0 | 0.00 | 0.00 | 0.00 | 37 | 1016.3 |
| 20260508193026 | 70 | 131 | 3.0 | 9.0 | 0.00 | 0.00 | 0.00 | 35 | 1016.3 |
| 20260508191533 | 72 | 109 | 4.0 | 9.0 | 0.00 | 0.00 | 0.00 | 32 | 1016.9 |
| 20260508190031 | 70 | 97 | 2.0 | 8.0 | 0.00 | 0.00 | 0.00 | 36 | 1017.2 |
| 20260508184517 | 68 | 139 | 2.0 | 8.0 | 0.00 | 0.00 | 0.00 | 38 | 1017.4 |
| 20260508183016 | 70 | 288 | 5.0 | 11.0 | 0.00 | 0.00 | 0.00 | 34 | 1017.3 |
| 20260508181517 | 68 | 121 | 9.0 | 15.0 | 0.00 | 0.00 | 0.00 | 33 | 1017.4 |
| 20260508180114 | 68 | 147 | 0.0 | 12.0 | 0.00 | 0.00 | 0.00 | 37 | 1017.7 |
| 20260508174553 | 68 | 232 | 2.0 | 10.0 | 0.00 | 0.00 | 0.00 | 38 | 1017.9 |
| 20260508173046 | 66 | 117 | 4.0 | 9.0 | 0.00 | 0.00 | 0.00 | 38 | 1018.1 |
| 20260508171521 | 68 | 207 | 1.0 | 9.0 | 0.00 | 0.00 | 0.00 | 33 | 1018.3 |
| 20260508170012 | 69 | 126 | 2.0 | 7.0 | 0.00 | 0.00 | 0.00 | 38 | 1018.4 |
| 20260508164544 | 67 | 289 | 4.0 | 8.0 | 0.00 | 0.00 | 0.00 | 35 | 1019.0 |
| 20260508163040 | 66 | 148 | 1.0 | 11.0 | 0.00 | 0.00 | 0.00 | 39 | 1019.1 |
| 20260508161510 | 66 | 355 | 2.0 | 7.0 | 0.00 | 0.00 | 0.00 | 36 | 1019.2 |
| 20260508160009 | 66 | 123 | 3.0 | 8.0 | 0.00 | 0.00 | 0.00 | 40 | 1019.3 |
| 20260508154505 | 65 | 93 | 0.0 | 7.0 | 0.00 | 0.00 | 0.00 | 37 | 1019.6 |
| 20260508153004 | 64 | 64 | 1.0 | 8.0 | 0.00 | 0.00 | 0.00 | 39 | 1019.5 |
| 20260508151505 | 65 | 105 | 3.0 | 8.0 | 0.00 | 0.00 | 0.00 | 37 | 1019.7 |
| 20260508150005 | 65 | 144 | 4.0 | 9.0 | 0.00 | 0.00 | 0.00 | 39 | 1019.4 |
| 20260508144531 | 64 | 124 | 1.0 | 8.0 | 0.00 | 0.00 | 0.00 | 44 | 1019.4 |
| 20260508143033 | 64 | 347 | 3.0 | 8.0 | 0.00 | 0.00 | 0.00 | 42 | 1019.5 |
| 20260508141547 | 62 | 116 | 2.0 | 6.0 | 0.00 | 0.00 | 0.00 | 45 | 1019.7 |
| 20260508140028 | 61 | 107 | 2.0 | 11.0 | 0.00 | 0.00 | 0.00 | 49 | 1019.8 |
| 20260508134530 | 62 | 57 | 3.0 | 7.0 | 0.00 | 0.00 | 0.00 | 51 | 1019.7 |
| 20260508133025 | 63 | 42 | 0.0 | 5.0 | 0.00 | 0.00 | 0.00 | 57 | 1019.6 |
| 20260508131554 | 63 | 36 | 0.0 | 4.0 | 0.00 | 0.00 | 0.00 | 58 | 1019.5 |
| 20260508130053 | 61 | 360 | 0.0 | 0.0 | 0.00 | 0.00 | 0.00 | 58 | 1019.4 |
| 20260508124558 | 61 | 298 | 0.0 | 0.0 | 0.00 | 0.00 | 0.00 | 61 | 1019.3 |
| 20260508123051 | 58 | 280 | 0.0 | 0.0 | 0.00 | 0.00 | 0.00 | 68 | 1019.4 |
| 20260508121547 | 54 | 280 | 0.0 | 0.0 | 0.00 | 0.00 | 0.00 | 73 | 1019.0 |
| 20260508120046 | 52 | 280 | 0.0 | 3.0 | 0.00 | 0.00 | 0.00 | 80 | 1018.8 |
| 20260508114542 | 50 | 279 | 0.0 | 2.0 | 0.00 | 0.00 | 0.00 | 86 | 1018.7 |
| 20260508113050 | 49 | 279 | 0.0 | 0.0 | 0.00 | 0.00 | 0.00 | 86 | 1018.4 |
| 20260508111540 | 48 | 279 | 0.0 | 1.0 | 0.00 | 0.00 | 0.00 | 86 | 1018.1 |
| 20260508110038 | 47 | 279 | 0.0 | 0.0 | 0.00 | 0.00 | 0.00 | 84 | 1017.8 |
| 20260508104532 | 47 | 279 | 0.0 | 0.0 | 0.00 | 0.00 | 0.00 | 83 | 1017.6 |
| 20260508103035 | 47 | 279 | 0.0 | 1.0 | 0.00 | 0.00 | 0.00 | 82 | 1017.3 |
| 20260508101531 | 47 | 279 | 0.0 | 2.0 | 0.00 | 0.00 | 0.00 | 81 | 1017.0 |
| 20260508100024 | 47 | 279 | 0.0 | 2.0 | 0.00 | 0.00 | 0.00 | 80 | 1016.8 |
| 20260508094519 | 48 | 279 | 2.0 | 4.0 | 0.00 | 0.00 | 0.00 | 79 | 1016.7 |
| 20260508093018 | 48 | 250 | 0.0 | 0.0 | 0.00 | 0.00 | 0.00 | 76 | 1016.5 |
| 20260508091529 | 48 | 249 | 0.0 | 0.0 | 0.00 | 0.00 | 0.00 | 75 | 1016.6 |
| 20260508090023 | 48 | 250 | 0.0 | 0.0 | 0.00 | 0.00 | 0.00 | 72 | 1016.3 |
| 20260508084509 | 48 | 249 | 0.0 | 0.0 | 0.00 | 0.00 | 0.00 | 71 | 1016.1 |
| 20260508083007 | 48 | 249 | 0.0 | 0.0 | 0.00 | 0.00 | 0.00 | 69 | 1016.1 |
| 20260508081509 | 49 | 250 | 0.0 | 0.0 | 0.00 | 0.00 | 0.00 | 68 | 1016.0 |
| 20260508080003 | 49 | 250 | 0.0 | 2.0 | 0.00 | 0.00 | 0.00 | 70 | 1015.7 |
| 20260508074606 | 49 | 249 | 0.0 | 1.0 | 0.00 | 0.00 | 0.00 | 69 | 1015.7 |
| 20260508073058 | 50 | 249 | 0.0 | 1.0 | 0.00 | 0.00 | 0.00 | 69 | 1015.7 |
| 20260508071557 | 50 | 249 | 0.0 | 0.0 | 0.00 | 0.00 | 0.00 | 69 | 1015.5 |
| 20260508070055 | 50 | 249 | 0.0 | 0.0 | 0.00 | 0.00 | 0.00 | 69 | 1015.5 |
| 20260508064524 | 50 | 249 | 0.0 | 0.0 | 0.00 | 0.00 | 0.00 | 69 | 1015.4 |
| 20260508063021 | 50 | 249 | 0.0 | 1.0 | 0.00 | 0.00 | 0.00 | 69 | 1015.4 |
| 20260508061518 | 50 | 272 | 0.0 | 5.0 | 0.00 | 0.00 | 0.00 | 67 | 1015.4 |
| 20260508060014 | 52 | 278 | 0.0 | 0.0 | 0.00 | 0.00 | 0.00 | 66 | 1015.6 |
| 20260508054512 | 52 | 278 | 0.0 | 0.0 | 0.00 | 0.00 | 0.00 | 64 | 1015.5 |
| 20260508053012 | 52 | 278 | 0.0 | 0.0 | 0.00 | 0.00 | 0.00 | 64 | 1015.6 |
| 20260508051507 | 52 | 278 | 0.0 | 0.0 | 0.00 | 0.00 | 0.00 | 64 | 1015.4 |
| 20260508050005 | 52 | 278 | 0.0 | 0.0 | 0.00 | 0.00 | 0.00 | 62 | 1015.4 |
| 20260508044502 | 54 | 278 | 0.0 | 0.0 | 0.00 | 0.00 | 0.00 | 64 | 1015.3 |
| 20260508043109 | 54 | 277 | 2.0 | 4.0 | 0.00 | 0.00 | 0.00 | 61 | 1015.2 |
| 20260508041559 | 54 | 303 | 0.0 | 2.0 | 0.00 | 0.00 | 0.00 | 60 | 1015.0 |
| 20260508040025 | 55 | 303 | 0.0 | 0.0 | 0.00 | 0.00 | 0.00 | 60 | 1015.1 |
| 20260508034522 | 56 | 303 | 0.0 | 0.0 | 0.00 | 0.00 | 0.00 | 56 | 1015.1 |
| 20260508033018 | 57 | 303 | 0.0 | 0.0 | 0.00 | 0.00 | 0.00 | 55 | 1015.2 |
| 20260508031513 | 58 | 303 | 1.0 | 3.0 | 0.00 | 0.00 | 0.00 | 52 | 1015.1 |
| 20260508030012 | 58 | 303 | 1.0 | 4.0 | 0.00 | 0.00 | 0.00 | 51 | 1015.1 |
| 20260508024510 | 59 | 302 | 1.0 | 5.0 | 0.00 | 0.00 | 0.00 | 50 | 1014.9 |
| 20260508023004 | 60 | 319 | 2.0 | 6.0 | 0.00 | 0.00 | 0.00 | 50 | 1014.5 |
| 20260508021502 | 60 | 311 | 1.0 | 4.0 | 0.00 | 0.00 | 0.00 | 49 | 1014.4 |
| 20260508020107 | 60 | 317 | 3.0 | 6.0 | 0.00 | 0.00 | 0.00 | 48 | 1014.3 |
| 20260508014556 | 61 | 329 | 4.0 | 11.0 | 0.00 | 0.00 | 0.00 | 48 | 1013.8 |
| 20260508013050 | 61 | 290 | 8.0 | 14.0 | 0.00 | 0.00 | 0.00 | 47 | 1013.6 |
| 20260508011546 | 62 | 312 | 5.0 | 12.0 | 0.00 | 0.00 | 0.00 | 48 | 1013.3 |
| 20260508010044 | 62 | 333 | 8.0 | 12.0 | 0.00 | 0.00 | 0.00 | 49 | 1012.9 |
| 20260508004542 | 63 | 14 | 5.0 | 11.0 | 0.00 | 0.00 | 0.00 | 50 | 1012.6 |
| 20260508003007 | 64 | 336 | 3.0 | 8.0 | 0.00 | 0.00 | 0.00 | 52 | 1012.4 |
| 20260508001502 | 65 | 305 | 7.0 | 11.0 | 0.00 | 0.00 | 0.00 | 51 | 1011.7 |
| 20260508000058 | 66 | 348 | 2.0 | 9.0 | 0.00 | 0.00 | 0.00 | 51 | 1011.5 |
| 20260507234556 | 66 | 281 | 10.0 | 17.0 | 0.00 | 0.00 | 0.00 | 50 | 1011.3 |
| 20260507233051 | 67 | 323 | 8.0 | 14.0 | 0.00 | 0.00 | 0.00 | 50 | 1010.9 |
| 20260507231553 | 69 | 258 | 8.0 | 19.0 | 0.00 | 0.00 | 0.00 | 48 | 1010.4 |
| 20260507230014 | 72 | 319 | 7.0 | 14.0 | 0.00 | 0.00 | 0.00 | 50 | 1010.1 |
| 20260507224511 | 73 | 305 | 11.0 | 15.0 | 0.00 | 0.00 | 0.00 | 48 | 1009.5 |
| 20260507223005 | 74 | 279 | 8.0 | 14.0 | 0.00 | 0.00 | 0.00 | 48 | 1009.0 |
| 20260507221507 | 75 | 298 | 6.0 | 15.0 | 0.00 | 0.00 | 0.00 | 48 | 1008.7 |
| 20260507220100 | 77 | 237 | 2.0 | 10.0 | 0.00 | 0.00 | 0.00 | 52 | 1008.5 |
| 20260507214618 | 78 | 277 | 2.0 | 5.0 | 0.00 | 0.00 | 0.00 | 51 | 1008.3 |
| 20260507213029 | 77 | 136 | 2.0 | 4.0 | 0.00 | 0.00 | 0.00 | 57 | 1008.4 |
| 20260507211528 | 76 | 355 | 0.0 | 3.0 | 0.00 | 0.00 | 0.00 | 55 | 1008.4 |
| 20260507210038 | 77 | 137 | 1.0 | 5.0 | 0.00 | 0.00 | 0.00 | 54 | 1008.1 |